Aérodrome :
LOGIN :

S'inscrire | Disclaimer

   EN    FR    IT 

 










Légende :    VFR   VFR Marginal   IFR   IFR Intensif   IFR Très Intensif
Visi : 
Plafond : 
>= 8 km
>= 3000ft
5 à 8 km
1000 à 3000 ft
1500m à 5 km
500 à 1000 ft
800 à 1500m
200 à 500 ft
< 800m
< 200 ft
Symboles :   Orages  Brouillard  Fortes neiges  Fortes précipitations  Vent > 20 kt
SIGMETs :   Divers  Orages  Givrage  Turbulence  Onde Orograph.  Cendres Volcan.







- Altitude de l'aérodrome : 587 ft
- Code IATA : XCR
- Voir les cartes d'approche


LFOK - Chalons Vatry

DERNIER METAR :
  • 210900Z AUTO 30004KT 250V340 CAVOK 22/14 Q1023 NOSIG

METARs EXPIRÉS :
  • 210830Z AUTO 28004KT 230V320 9999 FEW041 21/13 Q1022 NOSIG
  • 210800Z AUTO 31004KT 270V020 9999 FEW041 BKN049 21/15 Q1022 NOSIG
  • 210730Z AUTO VRB03KT CAVOK 20/15 Q1022 NOSIG
  • 210700Z AUTO 34003KT 310V020 CAVOK 19/15 Q1022 NOSIG
  • 210630Z AUTO 33004KT CAVOK 19/15 Q1021 NOSIG

TAF TAF LFOK
Valide du 21 à 06h jusqu'au 22 à 06h UTC


210500Z 2106/2206 VRB02KT CAVOK
Pas de NOTAMs connus pour ce terrain.



MET'MAP, la Météo Aéronautique d'un coup d'oeil ! - Copyright ORBIFLY Décembre 2007 - Disclaimer

ORBIFLY MET'MAP TEAM :

Programmation & Développement : Alexandra Zaïnal
Conception & Développement : Baudouin d'Aumeries
Co-Programmation & Développement : Marc-Olivier Méhu
Soutien technique & logistique : Manuel Goepfert

Contact : metmap@orbifly.com




SOURCES & CREDITS :

   NOAA